{"data":{"norad_id":66217,"intl_designator":"2025-244M","name":"STARLINK-35700","alt_names":[],"object_type":"PAYLOAD","status":"ACTIVE","operator":null,"country":"US","launch_date":"2025-10-28","launch_site_code":"AFWTR","launch_vehicle":null,"mission":null,"orbit_class":"UNKNOWN","rcs_meters":null,"size_class":null,"mass_kg":null,"dimensions":null,"purposes":["comms"],"wikipedia_slug":null,"has_3d_model":false,"image_url":null,"decayed_at":null,"tle_current":{"epoch":"2026-05-24T22:44:00.939840Z","epoch_age_seconds":79935,"freshness":"FRESH","line1":"1 66217U 25244M   26144.94723310  .00014572  00000+0  50303-3 0  9997","line2":"2 66217  53.1561 235.7919 0001104  74.4784 285.6338 15.30208075 33328","mean_motion":15.30208075,"eccentricity":0.0001104,"inclination_deg":53.1561,"raan_deg":235.7919,"arg_perigee_deg":74.4784,"mean_anomaly_deg":285.6338,"bstar":0.00050303,"rev_number":3332,"period_min":94.104849106877,"perigee_km":474.4343516242,"apogee_km":475.94756643756,"semimajor_km":6853.3279590309,"source":"CELESTRAK","updated_at":"2026-05-25T13:38:21.128906Z"}}}